Location: Melbourne
(37.8170°S, 144.9670°E)
Time: 05:13:53
(UTC+10:00)

ISS - All Passes

Search period start: 31 July 2014 00:00
Search period end: 10 August 2014 00:00
Orbit: 411 x 419 km, 51.6° (Epoch: 30 July)

Date Brightness Start Highest point End Pass type
(mag) Time Alt. Az. Time Alt. Az. Time Alt. Az.
31 Jul - 08:59:57 10° NE 09:00:58 11° NE 09:02:00 10° ENE daylight
31 Jul - 10:33:54 10° WNW 10:37:15 69° SW 10:40:39 10° SE daylight
31 Jul - 12:12:38 10° SW 12:14:30 14° SSW 12:16:22 10° SSE daylight
31 Jul - 15:28:33 10° SSW 15:30:27 14° SSE 15:32:20 10° SE daylight
31 Jul - 17:04:18 10° SW 17:07:41 71° SE 17:11:01 10° ENE daylight
31 Jul - 18:43:12 10° WNW 18:43:56 11° NW 18:44:40 10° NW visible
01 Aug - 09:45:06 10° NW 09:48:26 63° NE 09:51:48 10° SE daylight
01 Aug - 11:22:57 10° WSW 11:25:26 19° SSW 11:27:56 10° SSE daylight
01 Aug - 14:40:19 10° S 14:41:20 11° SSE 14:42:20 10° SSE daylight
01 Aug - 16:15:35 10° SW 16:18:48 39° SE 16:21:59 10° ENE daylight
01 Aug - 17:52:48 10° W 17:55:18 20° NW 17:57:47 10° N daylight
02 Aug - 08:56:37 10° NNW 08:59:41 33° NE 09:02:46 10° ESE daylight
02 Aug - 10:33:28 10° W 10:36:25 27° SSW 10:39:23 10° SSE daylight
02 Aug - 15:26:57 10° SSW 15:29:50 25° SSE 15:32:42 10° E daylight
02 Aug - 17:03:29 10° WSW 17:06:36 36° NW 17:09:42 10° NNE daylight
03 Aug - 08:08:36 10° N 08:10:59 18° NE 08:13:23 10° E daylight
03 Aug - 09:44:13 10° WNW 09:47:28 43° SW 09:50:44 10° SE daylight
03 Aug - 11:23:41 10° SW 11:24:54 11° SSW 11:26:06 10° S daylight
03 Aug - 14:38:24 10° SSW 14:40:48 18° SSE 14:43:12 10° ESE daylight
03 Aug - 16:14:28 10° SW 16:17:50 70° NW 16:21:09 10° NE daylight
04 Aug - 08:55:11 10° NW 08:58:34 78° SW 09:01:58 10° SE daylight
04 Aug - 10:33:44 10° WSW 10:35:46 15° SSW 10:37:47 10° SSE daylight
04 Aug - 13:49:57 10° SSW 13:51:42 13° SSE 13:53:27 10° SE daylight
04 Aug - 15:25:37 10° SW 15:28:59 62° SE 15:32:18 10° ENE daylight
04 Aug - 17:03:55 10° WNW 17:05:17 12° NW 17:06:39 10° NNW daylight
05 Aug - 08:06:25 10° NW 08:09:44 55° NE 08:13:04 10° ESE daylight
05 Aug - 09:44:04 10° WSW 09:46:40 20° SSW 09:49:17 10° SSE daylight
05 Aug - 13:01:47 10° S 13:02:32 11° SSE 13:03:18 10° SSE daylight
05 Aug - 14:36:53 10° SW 14:40:03 36° SSE 14:43:11 10° ENE daylight
05 Aug - 16:13:57 10° WSW 16:16:37 22° NW 16:19:16 10° N daylight
06 Aug - 07:17:59 10° NNW 07:20:57 29° NE 07:23:57 10° ESE daylight
06 Aug - 08:54:37 10° W 08:57:38 29° SSW 09:00:41 10° SSE daylight
06 Aug - 13:48:15 10° SSW 13:51:03 23° SSE 13:53:50 10° E daylight
06 Aug - 15:24:40 10° WSW 15:27:52 41° NW 15:31:02 10° NNE daylight
07 Aug - 06:30:04 10° N 06:32:14 16° NE 06:34:25 10° E visible
07 Aug - 08:05:22 10° WNW 08:08:40 48° SW 08:11:59 10° SE daylight
07 Aug - 09:44:38 10° SW 09:46:03 12° SSW 09:47:28 10° S daylight
07 Aug - 12:59:41 10° SSW 13:01:58 17° SSE 13:04:15 10° ESE daylight
07 Aug - 14:35:40 10° SW 14:39:03 80° NW 14:42:23 10° NE daylight
08 Aug - 07:16:22 10° NW 07:19:45 88° SW 07:23:10 10° SE daylight
08 Aug - 08:54:44 10° WSW 08:56:53 16° SSW 08:59:03 10° SSE daylight
08 Aug - 12:11:14 10° S 12:12:49 13° SSE 12:14:25 10° SE daylight
08 Aug - 13:46:49 10° SW 13:50:09 55° SE 13:53:27 10° ENE daylight
08 Aug - 15:24:44 10° W 15:26:30 14° NW 15:28:17 10° NNW daylight
09 Aug - 06:27:37 10° NNW 06:30:54 48° NE 06:34:12 10° ESE visible
09 Aug - 08:05:04 10° W 08:07:47 22° SSW 08:10:30 10° SSE daylight
09 Aug - 11:23:13 10° S 11:23:37 10° SSE 11:24:00 10° SSE daylight
09 Aug - 12:58:04 10° SW 13:01:10 32° SSE 13:04:15 10° E daylight
09 Aug - 14:34:58 10° WSW 14:37:47 25° NW 14:40:35 10° N daylight
